Wind_Speed
19 17 17 17 16 15 15 16 17 17 15 14 13 14 15 14 14 14 14 13 13 13 13 14 14 15 16 16 16 16 16 15 14 13 12 12 12 13 12 11 11 10
18 17 17 17 16 16 16 18 19 18 16 15 15 15 15 15 14 14 14 14 14 14 15 15 15 15 16 16 14 14 15 13 13 13 12 11 12 12 12 11 10 9
17 17 17 17 16 16 18 19 18 17 16 16 16 15 15 14 14 14 14 13 13 14 14 15 14 13 14 14 13 13 13 13 13 12 11 11 11 11 11 9 8 7
18 17 16 16 16 17 18 18 17 17 17 16 16 15 15 14 14 14 14 13 13 14 14 15 14 13 13 13 12 13 12 13 14 12 10 9 9 10 9 8 7 7
19 18 17 16 17 17 17 17 17 17 17 16 15 15 15 15 16 15 15 15 14 14 15 15 14 13 12 12 11 12 12 13 14 13 11 10 10 9 8 8 8 8
20 19 18 17 17 17 17 17 18 17 16 15 14 14 14 15 16 16 16 16 15 15 15 14 13 13 12 12 12 12 13 14 14 14 13 12 12 12 10 9 9 10
20 20 20 18 17 16 16 17 17 17 16 15 14 14 13 14 15 16 16 16 16 15 15 14 14 13 13 13 13 14 14 14 15 15 14 14 14 14 13 12 11 12
22 21 22 20 17 16 16 16 16 16 16 16 15 15 15 15 15 16 16 16 16 15 15 15 14 14 13 13 13 14 14 14 15 15 15 14 14 14 14 13 12 12
24 22 24 22 18 16 16 16 16 17 17 17 17 17 17 17 16 16 16 17 16 16 16 15 15 14 13 12 12 12 12 13 14 15 15 14 14 14 14 13 13 12
27 25 26 25 20 18 17 18 18 18 19 18 18 19 19 19 18 16 16 16 17 17 16 16 16 15 15 14 13 13 12 13 14 15 15 14 14 14 14 14 13 12
29 28 27 26 23 20 19 20 20 20 20 20 20 21 21 21 19 17 16 16 16 17 17 17 17 17 16 16 15 15 15 15 15 16 15 15 15 15 15 15 14 12
32 31 29 28 26 23 22 21 21 21 21 21 21 22 23 23 21 19 18 17 17 17 17 17 17 18 18 18 18 18 17 17 17 17 17 17 17 17 17 16 15 14
32 32 31 29 28 25 24 23 23 22 22 22 22 23 24 25 24 22 21 20 20 19 18 18 19 20 20 20 19 19 19 19 19 19 19 19 19 18 18 18 17 17
28 30 32 30 29 28 26 24 23 22 22 22 22 23 24 26 26 25 23 23 22 20 20 21 21 21 21 20 19 19 20 20 20 20 21 22 21 20 20 19 19 18
28 31 34 32 30 29 27 26 25 23 22 22 24 25 25 26 26 26 25 24 23 23 24 24 23 22 22 21 20 20 21 21 21 22 23 23 22 22 22 21 21 20
29 31 36 34 31 30 29 27 27 25 23 24 25 26 26 26 26 26 25 24 25 27 27 27 26 25 24 23 22 22 22 22 23 23 24 24 23 23 23 23 23 22
32 33 36 36 32 31 30 29 28 27 26 27 27 26 26 27 26 26 26 25 26 28 28 28 28 27 26 25 25 24 23 23 23 24 24 24 24 24 25 25 25 24
32 31 35 37 33 30 30 31 30 30 30 29 29 28 27 27 27 27 26 26 26 27 27 27 28 28 27 27 26 25 24 24 23 23 24 24 25 26 26 26 26 25
30 31 35 37 37 34 32 32 32 32 32 31 30 29 28 27 28 27 26 25 26 27 27 28 28 28 28 28 27 26 25 24 23 23 24 25 25 26 26 26 27 27
32 34 35 38 41 38 33 32 33 34 33 32 31 30 30 29 29 28 27 27 27 28 29 30 30 30 29 28 28 27 25 24 23 24 25 25 26 27 27 27 28 28
34 35 35 37 40 38 33 31 33 34 33 32 31 31 31 32 32 31 30 30 31 31 32 33 32 31 29 28 27 27 26 26 25 26 26 26 27 28 28 29 29 29
33 34 35 35 37 39 35 33 33 33 33 32 32 32 33 32 33 33 33 33 33 34 35 35 34 32 30 29 28 28 28 28 28 28 27 27 28 29 29 30 30 31
34 35 35 34 36 37 35 33 32 32 32 32 33 33 33 32 32 33 33 33 32 32 32 33 32 32 31 30 29 29 29 30 30 29 28 29 30 30 30 31 32 32
36 36 37 37 38 37 36 35 33 31 31 31 31 31 30 29 31 31 31 31 29 28 29 30 31 32 32 31 30 29 30 31 30 29 29 30 31 31 31 32 32 32
34 37 40 41 41 40 39 38 36 34 33 31 31 31 29 30 32 31 30 30 29 28 29 30 31 32 33 32 31 30 30 31 30 30 30 31 32 32 32 32 33 33
35 37 40 40 41 40 40 39 39 38 37 34 33 33 34 35 35 32 30 30 30 30 30 31 31 33 33 33 33 31 31 31 31 31 32 33 33 34 33 33 33 32
Wind_Direction
278 271 266 263 258 254 254 256 256 257 257 257 258 257 256 253 250 249 246 243 242 241 247 253 256 257 257 257 258 258 257 258 261 261 255 253 255 250 245 243 243 246
274 265 262 258 254 251 252 255 256 256 258 259 260 260 259 257 254 252 247 244 243 244 249 255 257 257 255 255 253 254 259 259 258 261 257 250 248 247 244 243 245 249
270 260 258 255 252 249 250 251 252 254 257 259 260 260 260 259 255 252 249 247 248 249 252 253 253 248 246 248 248 250 258 261 260 256 245 240 243 247 248 246 249 247
269 257 254 254 251 248 248 250 251 255 256 256 256 255 255 255 254 253 251 250 250 252 253 250 247 241 240 243 246 250 254 254 253 248 239 241 244 243 246 250 255 251
269 259 251 249 247 246 247 249 251 253 252 252 253 253 254 254 254 254 254 252 252 253 252 246 240 238 242 246 247 251 252 249 250 250 249 250 249 245 245 249 256 259
270 263 252 245 243 245 247 247 248 249 249 250 252 253 255 256 257 257 255 254 252 248 244 238 235 235 240 248 250 250 251 251 254 256 254 252 256 261 259 253 256 262
267 263 254 246 241 243 246 245 246 247 249 250 250 251 254 255 256 256 253 251 247 239 233 230 232 235 237 243 247 246 247 249 252 254 254 253 259 264 264 258 256 255
266 264 258 251 243 242 243 241 243 247 249 250 248 248 250 251 252 252 249 246 239 232 228 230 232 233 234 236 239 241 242 244 248 252 253 255 257 260 259 256 252 248
265 264 262 256 247 242 240 238 242 248 251 252 250 247 247 249 249 249 247 244 239 234 232 232 229 227 226 227 230 235 239 242 247 250 252 252 252 254 255 253 249 244
265 265 262 256 249 242 238 237 240 247 252 253 251 248 247 248 248 248 246 245 242 240 236 232 228 224 222 223 228 234 241 245 246 247 249 249 248 249 249 248 248 247
264 265 258 252 249 242 236 236 239 246 253 255 255 252 249 248 247 246 246 245 244 241 235 230 227 227 228 232 238 243 246 248 248 247 246 245 244 242 241 243 247 251
258 259 253 250 250 242 236 238 241 247 252 254 256 254 250 248 246 245 244 243 243 239 233 229 229 233 237 242 248 252 253 253 252 251 248 245 244 242 243 246 247 251
256 250 243 247 249 241 237 240 242 246 251 254 257 255 251 247 245 245 244 241 239 237 235 234 233 236 241 245 250 254 256 255 254 253 252 250 248 247 249 252 253 254
258 241 235 244 248 241 238 241 242 245 250 254 257 255 251 246 243 244 244 243 240 237 236 236 234 237 241 245 250 253 254 254 253 252 251 251 251 250 250 252 254 256
261 244 237 242 243 240 241 241 240 243 246 250 253 253 250 245 242 243 244 244 242 237 236 237 236 238 242 244 246 249 251 252 252 251 250 250 250 250 251 252 252 253
260 249 240 238 237 239 242 240 238 238 240 243 247 249 249 245 241 241 242 242 240 237 238 239 239 240 241 242 244 246 248 250 251 250 249 248 249 249 251 252 251 251
258 250 237 231 233 238 242 240 238 236 235 238 243 245 246 244 241 241 240 238 238 238 239 240 241 242 241 241 243 244 246 248 249 251 250 248 248 248 249 251 252 252
252 242 228 226 233 242 244 242 239 236 235 237 240 242 243 242 241 241 240 239 240 241 241 242 243 244 244 243 243 243 244 246 247 249 249 248 248 249 250 253 254 255
247 236 229 233 240 243 245 243 240 238 237 237 238 240 241 241 240 240 240 240 242 243 243 243 244 246 247 246 245 243 244 246 247 247 247 248 249 251 252 254 255 257
249 244 241 244 243 241 244 243 238 237 237 236 238 239 238 239 239 239 239 241 244 246 246 245 245 246 247 247 247 246 246 248 247 246 246 246 248 251 252 254 256 258
251 247 246 245 239 237 243 242 237 237 238 236 237 238 238 239 240 241 242 245 248 249 247 245 244 244 245 245 246 246 247 247 245 244 244 244 246 248 249 252 254 256
248 245 244 242 236 237 243 243 238 237 238 237 236 236 238 241 243 245 246 247 249 250 247 243 241 241 240 241 243 243 244 244 243 243 244 244 244 245 246 249 251 252
239 239 238 237 235 238 245 247 243 238 236 237 236 235 237 242 246 249 248 246 247 247 242 237 236 237 236 237 240 241 241 242 243 244 245 246 246 247 248 249 250 251
230 233 233 233 235 240 245 248 246 242 241 240 235 232 235 241 248 250 247 242 242 239 234 232 234 235 234 235 237 238 240 242 244 246 248 249 250 251 251 252 253 254
222 225 227 230 234 240 245 247 247 247 250 246 235 231 238 245 246 245 240 237 237 236 234 235 236 234 233 234 236 238 241 244 246 249 250 251 253 254 254 256 258 259
219 222 226 230 235 239 243 247 248 249 252 249 242 244 249 246 241 237 237 237 237 237 237 239 238 235 234 234 237 242 246 248 251 251 252 253 256 257 258 259 261 264
Height
5771 5771 5771 5772 5772 5772 5773 5774 5775 5776 5776 5777 5778 5780 5781 5782 5784 5784 5785 5785 5785 5785 5786 5787 5787 5787 5787 5787 5787 5787 5787 5788 5788 5788 5789 5790 5790 5790 5791 5793 5794 5795
5769 5770 5770 5771 5771 5772 5772 5773 5773 5773 5773 5775 5776 5778 5779 5781 5782 5782 5783 5783 5783 5784 5784 5784 5785 5786 5785 5785 5785 5785 5784 5785 5787 5786 5786 5787 5788 5789 5790 5791 5792 5794
5767 5768 5769 5770 5770 5771 5772 5772 5772 5772 5772 5773 5775 5776 5778 5778 5779 5780 5781 5781 5782 5782 5782 5783 5783 5784 5784 5784 5784 5784 5784 5784 5784 5784 5785 5786 5787 5788 5788 5790 5791 5792
5765 5766 5767 5768 5769 5770 5771 5771 5771 5771 5771 5772 5774 5775 5776 5777 5777 5778 5779 5779 5780 5780 5781 5781 5781 5782 5782 5783 5784 5783 5784 5784 5782 5783 5784 5785 5786 5787 5788 5788 5789 5790
5763 5764 5765 5766 5767 5768 5769 5769 5769 5769 5770 5771 5772 5773 5774 5775 5775 5776 5776 5777 5778 5779 5779 5779 5780 5780 5781 5781 5782 5782 5783 5783 5782 5782 5784 5784 5784 5786 5787 5787 5788 5788
5761 5763 5764 5764 5765 5766 5767 5767 5768 5768 5769 5770 5770 5771 5772 5772 5773 5774 5774 5775 5776 5777 5777 5778 5778 5779 5779 5780 5780 5781 5781 5782 5781 5781 5782 5783 5783 5784 5785 5787 5787 5787
5759 5761 5762 5762 5762 5763 5765 5766 5766 5766 5767 5768 5769 5769 5770 5771 5771 5772 5773 5773 5774 5775 5775 5776 5776 5777 5778 5778 5779 5780 5780 5781 5781 5781 5781 5782 5782 5782 5783 5785 5786 5787
5757 5759 5760 5760 5760 5760 5762 5763 5764 5765 5766 5766 5767 5768 5769 5769 5770 5771 5771 5772 5773 5773 5774 5774 5775 5775 5775 5776 5777 5778 5779 5780 5780 5780 5781 5781 5781 5782 5782 5783 5784 5785
5754 5756 5757 5757 5757 5757 5759 5760 5761 5763 5764 5765 5766 5766 5767 5768 5769 5769 5770 5771 5771 5772 5772 5773 5773 5773 5774 5775 5775 5776 5777 5778 5779 5779 5779 5780 5780 5780 5781 5781 5782 5783
5751 5753 5754 5754 5755 5755 5756 5758 5759 5761 5762 5763 5764 5764 5765 5766 5767 5768 5769 5769 5770 5770 5771 5771 5772 5772 5773 5773 5774 5775 5776 5777 5778 5778 5778 5778 5779 5779 5779 5779 5780 5781
5749 5751 5752 5753 5753 5754 5754 5755 5757 5758 5759 5760 5761 5762 5764 5764 5765 5767 5767 5768 5768 5769 5769 5770 5771 5771 5772 5772 5773 5773 5774 5775 5776 5777 5777 5777 5777 5778 5778 5778 5779 5779
5746 5748 5750 5751 5751 5752 5753 5753 5754 5755 5756 5758 5759 5760 5761 5762 5763 5764 5765 5766 5766 5767 5768 5769 5770 5771 5771 5771 5772 5772 5772 5773 5774 5774 5775 5776 5776 5776 5776 5776 5777 5778
5741 5744 5746 5748 5749 5750 5750 5751 5751 5752 5754 5755 5757 5758 5759 5760 5761 5762 5763 5764 5764 5766 5767 5768 5768 5768 5768 5769 5769 5770 5770 5771 5772 5772 5773 5773 5774 5774 5774 5775 5775 5776
5738 5739 5742 5744 5746 5747 5747 5748 5749 5750 5751 5753 5754 5755 5756 5756 5757 5759 5760 5761 5763 5765 5765 5765 5765 5766 5766 5767 5768 5768 5769 5769 5770 5770 5771 5771 5772 5773 5773 5773 5774 5775
5735 5736 5737 5740 5742 5743 5744 5745 5746 5747 5749 5750 5750 5751 5752 5753 5754 5756 5757 5759 5761 5762 5762 5762 5763 5764 5764 5765 5766 5766 5766 5767 5767 5768 5769 5769 5770 5770 5771 5771 5772 5773
5730 5732 5733 5736 5737 5739 5741 5742 5743 5744 5746 5746 5747 5748 5749 5750 5752 5753 5755 5757 5758 5758 5758 5759 5761 5761 5762 5762 5763 5763 5764 5764 5765 5766 5766 5767 5768 5768 5768 5769 5770 5770
5726 5728 5730 5732 5734 5735 5737 5739 5739 5741 5742 5742 5743 5745 5746 5747 5749 5750 5752 5753 5753 5754 5756 5757 5757 5758 5759 5760 5760 5761 5761 5762 5762 5763 5764 5765 5765 5765 5765 5766 5767 5768
5723 5724 5726 5728 5730 5731 5733 5735 5735 5737 5738 5739 5741 5742 5743 5744 5746 5747 5749 5750 5750 5751 5753 5754 5754 5755 5756 5757 5757 5758 5759 5759 5760 5761 5761 5762 5762 5763 5763 5763 5764 5765
5719 5720 5722 5725 5726 5728 5729 5730 5731 5733 5735 5736 5738 5739 5740 5741 5742 5744 5745 5747 5748 5749 5750 5751 5752 5752 5753 5754 5754 5755 5756 5756 5758 5758 5758 5759 5759 5760 5761 5761 5761 5762
5714 5716 5719 5720 5721 5723 5725 5726 5727 5729 5731 5733 5735 5737 5737 5738 5739 5740 5742 5743 5744 5745 5746 5747 5748 5749 5750 5751 5751 5752 5753 5753 5755 5755 5755 5756 5756 5757 5757 5758 5758 5759
5710 5712 5714 5715 5716 5719 5721 5722 5723 5725 5727 5730 5732 5733 5734 5734 5735 5737 5739 5740 5741 5742 5742 5743 5744 5745 5746 5747 5748 5749 5749 5750 5751 5751 5752 5753 5753 5753 5754 5754 5755 5756
5706 5708 5709 5710 5712 5714 5716 5717 5719 5722 5724 5727 5728 5729 5730 5730 5731 5733 5734 5736 5736 5737 5738 5738 5740 5741 5743 5744 5744 5745 5746 5746 5747 5748 5748 5749 5749 5749 5750 5751 5751 5752
5702 5704 5705 5706 5708 5710 5712 5714 5716 5718 5721 5723 5724 5725 5726 5727 5728 5728 5730 5731 5731 5732 5733 5734 5736 5737 5738 5740 5740 5741 5742 5743 5743 5744 5745 5746 5745 5746 5747 5747 5747 5748
5699 5700 5702 5703 5704 5706 5708 5710 5712 5715 5717 5719 5720 5721 5722 5723 5724 5724 5725 5726 5727 5728 5729 5730 5732 5733 5734 5736 5736 5737 5738 5739 5740 5741 5742 5742 5742 5742 5743 5743 5743 5744
5695 5696 5698 5700 5702 5703 5704 5706 5708 5711 5713 5715 5716 5718 5719 5719 5720 5721 5722 5723 5724 5725 5726 5727 5728 5729 5730 5732 5733 5734 5735 5735 5736 5737 5737 5737 5737 5737 5738 5739 5739 5740
5691 5692 5694 5696 5698 5699 5701 5702 5704 5707 5709 5711 5712 5713 5714 5715 5716 5717 5718 5719 5720 5721 5722 5723 5725 5726 5727 5728 5729 5730 5731 5731 5732 5733 5733 5732 5732 5733 5734 5735 5735 5735